Pine Ridge, SD

12:58 PM MDT on June 22, 2018 (GMT -0600)
Pine Ridge

Weather History for KIEN - September, 2017

Change the Weather History Date:

Thursday, September 14, 2017

  Actual Average Record
Temperature  
Mean Temperature 68 °F 62 °F  
Max Temperature 83 °F 79 °F 95 °F (2015)
Min Temperature 53 °F 45 °F 25 °F (2007)
Degree Days  
Heating Degree Days 0 5  
Month to date heating degree days 26 53  
Since 1 July heating degree days 38 90  
Cooling Degree Days 3 2  
Month to date cooling degree days 85 49  
Year to date cooling degree days 758 697  
Growing Degree Days 18 (Base 50)    
Moisture  
Dew Point 51 °F    
Average Humidity 56    
Maximum Humidity 78    
Minimum Humidity 33    
Precipitation  
Precipitation 0.00 in 0.06 in 0.22 in (1998)
Month to date precipitation 0.09 0.79  
Year to date precipitation 13.26 14.58  
Sea Level Pressure  
Sea Level Pressure 29.70 in    
Wind  
Wind Speed 7 mph (North)    
Max Wind Speed 16 mph    
Max Gust Speed 21 mph    
Visibility 7 miles    
Events      
T = Trace of Precipitation, MM = Missing Value Source: NWS Daily Summary

Daily Weather History Graph

Daily Weather History Graph

Search for Another Location

Airport or City:

Astronomy

Sep. 14, 2017 Rise Set
Actual Time 6:28 AM MDT 7:01 PM MDT
Civil Twilight 6:00 AM MDT 7:29 PM MDT
Nautical Twilight 5:26 AM MDT 8:03 PM MDT
Astronomical Twilight 4:51 AM MDT 8:38 PM MDT
Moon 12:20 AM MDT (9/14) 3:27 PM MDT (9/14)
Length of Visible Light 13h 29m
Length of Day
12h 32m
Waning Crescent, 33% of the Moon is Illuminated
Sep 14
Waning Crescent
Sep 19
New
Sep 27
First Quarter
Oct 5
Full
Oct 12
Last Quarter

Hourly Weather History & Observations

Time (MDT) Temp. Dew Point Humidity Pressure Visibility Wind Dir Wind Speed Gust Speed Precip Events Conditions
12:52 AM 70.0 °F 52.0 °F 53% 29.59 in 10.0 mi SW 8.1 mph - N/A   Clear
1:52 AM 68.0 °F 50.0 °F 52% 29.58 in 10.0 mi Calm Calm - N/A   Clear
2:52 AM 63.0 °F 50.0 °F 63% 29.59 in 10.0 mi Calm Calm - N/A   Clear
3:52 AM 66.9 °F 48.9 °F 52% 29.60 in 10.0 mi Variable 3.5 mph - N/A   Clear
4:52 AM 62.1 °F 48.0 °F 60% 29.65 in 10.0 mi WNW 3.5 mph - N/A   Clear
5:52 AM 57.9 °F 48.0 °F 70% 29.67 in 9.0 mi Calm Calm - N/A   Clear
6:52 AM 55.9 °F 46.9 °F 72% 29.70 in 6.0 mi SSW 4.6 mph - N/A   Haze
7:52 AM 61.0 °F 51.1 °F 70% 29.73 in 4.0 mi SW 3.5 mph - N/A   Haze
8:52 AM 68.0 °F 48.0 °F 49% 29.74 in 3.0 mi NNW 9.2 mph - N/A   Haze
9:52 AM 71.1 °F 48.9 °F 45% 29.74 in 3.0 mi North 9.2 mph - N/A   Haze
10:52 AM 72.0 °F 48.0 °F 43% 29.75 in 4.0 mi NNW 12.7 mph 18.4 mph N/A   Haze
11:52 AM 75.9 °F 50.0 °F 40% 29.73 in 4.0 mi North 9.2 mph 19.6 mph N/A   Haze
12:52 PM 81.0 °F 48.9 °F 33% 29.72 in 4.0 mi North 10.4 mph - N/A   Haze
1:52 PM 80.1 °F 50.0 °F 35% 29.71 in 5.0 mi NNE 9.2 mph - N/A   Haze
2:52 PM 82.0 °F 51.1 °F 34% 29.70 in 5.0 mi NNE 10.4 mph - N/A   Haze
3:52 PM 82.9 °F 50.0 °F 32% 29.69 in 6.0 mi North 9.2 mph - N/A   Haze
4:52 PM 82.0 °F 50.0 °F 33% 29.70 in 6.0 mi North 8.1 mph - N/A   Haze
5:52 PM 78.1 °F 51.1 °F 39% 29.73 in 6.0 mi NNE 9.2 mph - N/A   Haze
6:52 PM 73.0 °F 51.1 °F 46% 29.76 in 6.0 mi NNE 5.8 mph - N/A   Haze
7:52 PM 69.1 °F 52.0 °F 54% 29.77 in 7.0 mi NNE 6.9 mph - N/A   Clear
8:52 PM 69.1 °F 54.0 °F 58% 29.73 in 9.0 mi ENE 12.7 mph - N/A   Clear
9:52 PM 68.0 °F 54.0 °F 61% 29.74 in 8.0 mi NE 9.2 mph - N/A   Clear
10:52 PM 66.0 °F 55.0 °F 68% 29.73 in 8.0 mi East 11.5 mph - N/A   Clear
11:52 PM 64.9 °F 57.0 °F 75% 29.73 in 10.0 mi ENE 8.1 mph - N/A   Clear